Time,TemperatureF,DewpointF,PressureIn,WindDirection,WindDirectionDegrees,WindSpeedMPH,WindSpeedGustMPH,Humidity,HourlyPrecipIn,Conditions,Clouds,dailyrainin,SolarRadiationWatts/m^2,SoftwareType,DateUTC
2013-04-11 00:02:00,31.0,16.0,-100.00,SW,227,4.0,6.0,54,0.00,,,0.00,0.000000,,2013-04-11 06:02:00,
2013-04-11 00:12:00,31.0,16.0,-100.00,SW,227,4.0,6.0,54,0.00,,,0.00,0.000000,,2013-04-11 06:12:00,
2013-04-11 00:22:00,31.0,16.0,-100.00,SW,227,4.0,6.0,54,0.00,,,0.00,0.000000,,2013-04-11 06:22:00,
2013-04-11 00:32:00,31.0,16.0,-100.00,SW,227,4.0,6.0,54,0.00,,,0.00,0.000000,,2013-04-11 06:32:00,
2013-04-11 00:52:00,31.0,17.0,-100.00,SW,229,5.0,8.0,55,0.00,,,0.00,0.000000,,2013-04-11 06:52:00,
2013-04-11 01:02:00,31.0,17.0,-100.00,SW,229,5.0,8.0,55,0.00,,,0.00,0.000000,,2013-04-11 07:02:00,
2013-04-11 01:12:00,31.0,17.0,-100.00,SW,229,5.0,8.0,55,0.00,,,0.00,0.000000,,2013-04-11 07:12:00,
2013-04-11 01:21:00,31.0,17.0,-100.00,SW,229,5.0,8.0,55,0.00,,,0.00,0.000000,,2013-04-11 07:21:00,
2013-04-11 01:31:00,31.0,17.0,-100.00,SW,229,5.0,8.0,55,0.00,,,0.00,0.000000,,2013-04-11 07:31:00,
2013-04-11 01:52:00,30.0,16.0,-100.00,WSW,241,5.0,8.0,56,0.00,,,0.00,0.000000,,2013-04-11 07:52:00,
2013-04-11 02:02:00,30.0,16.0,-100.00,WSW,241,5.0,8.0,56,0.00,,,0.00,0.000000,,2013-04-11 08:02:00,
2013-04-11 02:12:00,30.0,16.0,-100.00,WSW,241,5.0,8.0,56,0.00,,,0.00,0.000000,,2013-04-11 08:12:00,
2013-04-11 02:22:00,30.0,16.0,-100.00,WSW,241,5.0,8.0,56,0.00,,,0.00,0.000000,,2013-04-11 08:22:00,
2013-04-11 02:32:00,30.0,16.0,-100.00,WSW,241,5.0,8.0,56,0.00,,,0.00,0.000000,,2013-04-11 08:32:00,
2013-04-11 02:52:00,30.0,17.0,-100.00,SW,234,2.0,6.0,58,0.00,,,0.00,0.000000,,2013-04-11 08:52:00,
2013-04-11 03:02:00,30.0,17.0,-100.00,SW,234,2.0,6.0,58,0.00,,,0.00,0.000000,,2013-04-11 09:02:00,
2013-04-11 03:12:00,30.0,17.0,-100.00,SW,234,2.0,6.0,58,0.00,,,0.00,0.000000,,2013-04-11 09:12:00,
2013-04-11 03:22:00,30.0,17.0,-100.00,SW,234,2.0,6.0,58,0.00,,,0.00,0.000000,,2013-04-11 09:22:00,
2013-04-11 03:32:00,30.0,17.0,-100.00,SW,234,2.0,6.0,58,0.00,,,0.00,0.000000,,2013-04-11 09:32:00,
2013-04-11 03:53:00,30.0,16.0,-100.00,ESE,118,5.0,7.0,56,0.00,,,0.00,0.000000,,2013-04-11 09:53:00,
2013-04-11 04:02:00,30.0,16.0,-100.00,ESE,118,5.0,7.0,56,0.00,,,0.00,0.000000,,2013-04-11 10:02:00,
2013-04-11 04:12:00,30.0,16.0,-100.00,ESE,118,5.0,7.0,56,0.00,,,0.00,0.000000,,2013-04-11 10:12:00,
2013-04-11 04:22:00,30.0,16.0,-100.00,ESE,118,5.0,7.0,56,0.00,,,0.00,0.000000,,2013-04-11 10:22:00,
2013-04-11 04:32:00,30.0,16.0,-100.00,ESE,118,5.0,7.0,56,0.00,,,0.00,0.000000,,2013-04-11 10:32:00,
2013-04-11 04:52:00,29.0,14.0,-100.00,SW,215,1.0,6.0,53,0.00,,,0.00,0.000000,,2013-04-11 10:52:00,
2013-04-11 05:02:00,29.0,14.0,-100.00,SW,215,1.0,6.0,53,0.00,,,0.00,0.000000,,2013-04-11 11:02:00,
2013-04-11 05:12:00,29.0,14.0,-100.00,SW,215,1.0,6.0,53,0.00,,,0.00,0.000000,,2013-04-11 11:12:00,
2013-04-11 05:22:00,29.0,14.0,-100.00,SW,215,1.0,6.0,53,0.00,,,0.00,0.000000,,2013-04-11 11:22:00,
2013-04-11 05:31:00,29.0,14.0,-100.00,SW,215,1.0,6.0,53,0.00,,,0.00,0.000000,,2013-04-11 11:31:00,
2013-04-11 05:52:00,29.0,15.0,-100.00,SE,125,3.0,4.0,56,0.00,,,-99.99,0.000000,,2013-04-11 11:52:00,
2013-04-11 06:02:00,29.0,15.0,-100.00,SE,125,3.0,4.0,56,0.00,,,-99.99,0.000000,,2013-04-11 12:02:00,
2013-04-11 06:12:00,29.0,15.0,-100.00,SE,125,3.0,4.0,56,0.00,,,-99.99,0.000000,,2013-04-11 12:12:00,
2013-04-11 06:22:00,29.0,15.0,-100.00,SE,125,3.0,4.0,56,0.00,,,-99.99,0.000000,,2013-04-11 12:22:00,
2013-04-11 06:32:00,29.0,15.0,-100.00,SE,125,3.0,4.0,56,0.00,,,-99.99,0.000000,,2013-04-11 12:32:00,
2013-04-11 06:52:00,30.0,16.0,-100.00,NE,35,1.0,3.0,55,0.00,,,-99.99,0.000000,,2013-04-11 12:52:00,
2013-04-11 07:02:00,30.0,16.0,-100.00,NE,35,1.0,3.0,55,0.00,,,-99.99,0.000000,,2013-04-11 13:02:00,
2013-04-11 07:12:00,30.0,16.0,-100.00,NE,35,1.0,3.0,55,0.00,,,-99.99,0.000000,,2013-04-11 13:12:00,
2013-04-11 07:22:00,30.0,16.0,-100.00,NE,35,1.0,3.0,55,0.00,,,-99.99,0.000000,,2013-04-11 13:22:00,
2013-04-11 07:32:00,30.0,16.0,-100.00,NE,35,1.0,3.0,55,0.00,,,-99.99,0.000000,,2013-04-11 13:32:00,
2013-04-11 07:54:00,31.0,18.0,-100.00,East,79,0.0,4.0,57,0.00,,,-99.99,21.000000,,2013-04-11 13:54:00,
2013-04-11 08:02:00,31.0,18.0,-100.00,East,79,0.0,4.0,57,0.00,,,-99.99,21.000000,,2013-04-11 14:02:00,
2013-04-11 08:12:00,31.0,18.0,-100.00,East,79,0.0,4.0,57,0.00,,,-99.99,21.000000,,2013-04-11 14:12:00,
2013-04-11 08:22:00,31.0,18.0,-100.00,East,79,0.0,4.0,57,0.00,,,-99.99,21.000000,,2013-04-11 14:22:00,
2013-04-11 08:32:00,31.0,18.0,-100.00,East,79,0.0,4.0,57,0.00,,,-99.99,21.000000,,2013-04-11 14:32:00,
2013-04-11 08:52:00,31.0,20.0,-100.00,NE,56,1.0,4.0,63,0.00,,,0.00,74.000000,,2013-04-11 14:52:00,
2013-04-11 09:02:00,31.0,20.0,-100.00,NE,56,1.0,4.0,63,0.00,,,0.00,74.000000,,2013-04-11 15:02:00,
2013-04-11 09:12:00,31.0,20.0,-100.00,NE,56,1.0,4.0,63,0.00,,,0.00,74.000000,,2013-04-11 15:12:00,
2013-04-11 09:22:00,31.0,20.0,-100.00,NE,56,1.0,4.0,63,0.00,,,0.00,74.000000,,2013-04-11 15:22:00,
2013-04-11 09:32:00,31.0,20.0,-100.00,NE,56,1.0,4.0,63,0.00,,,0.00,74.000000,,2013-04-11 15:32:00,
2013-04-11 10:53:00,36.0,19.0,-100.00,WSW,237,4.0,10.0,49,-99.99,,,0.00,275.000000,,2013-04-11 16:53:00,
2013-04-11 11:02:00,36.0,19.0,-100.00,WSW,237,4.0,10.0,49,-99.99,,,0.00,275.000000,,2013-04-11 17:02:00,
2013-04-11 11:12:00,36.0,19.0,-100.00,WSW,237,4.0,10.0,49,-99.99,,,0.00,275.000000,,2013-04-11 17:12:00,
2013-04-11 11:22:00,36.0,19.0,-100.00,WSW,237,4.0,10.0,49,-99.99,,,0.00,275.000000,,2013-04-11 17:22:00,
2013-04-11 11:32:00,36.0,19.0,-100.00,WSW,237,4.0,10.0,49,-99.99,,,0.00,275.000000,,2013-04-11 17:32:00,
2013-04-11 11:53:00,37.0,20.0,-100.00,SSW,201,4.0,10.0,50,0.00,,,0.00,402.000000,,2013-04-11 17:53:00,
2013-04-11 12:02:00,37.0,20.0,-100.00,SSW,201,4.0,10.0,50,0.00,,,0.00,402.000000,,2013-04-11 18:02:00,
2013-04-11 12:13:00,37.0,20.0,-100.00,SSW,201,4.0,10.0,50,0.00,,,0.00,402.000000,,2013-04-11 18:13:00,
2013-04-11 12:22:00,37.0,20.0,-100.00,SSW,201,4.0,10.0,50,0.00,,,0.00,402.000000,,2013-04-11 18:22:00,
2013-04-11 12:32:00,37.0,20.0,-100.00,SSW,201,4.0,10.0,50,0.00,,,0.00,402.000000,,2013-04-11 18:32:00,
2013-04-11 12:53:00,41.0,23.0,-100.00,South,187,4.0,10.0,48,0.00,,,0.00,704.000000,,2013-04-11 18:53:00,
2013-04-11 13:03:00,41.0,23.0,-100.00,South,187,4.0,10.0,48,0.00,,,0.00,704.000000,,2013-04-11 19:03:00,
2013-04-11 13:13:00,41.0,23.0,-100.00,South,187,4.0,10.0,48,0.00,,,0.00,704.000000,,2013-04-11 19:13:00,
2013-04-11 13:22:00,41.0,23.0,-100.00,South,187,4.0,10.0,48,0.00,,,0.00,704.000000,,2013-04-11 19:22:00,
2013-04-11 13:32:00,41.0,23.0,-100.00,South,187,4.0,10.0,48,0.00,,,0.00,704.000000,,2013-04-11 19:32:00,
2013-04-11 13:53:00,40.0,28.0,-100.00,SW,226,7.0,12.0,61,0.00,,,0.00,697.000000,,2013-04-11 19:53:00,
2013-04-11 14:02:00,40.0,28.0,-100.00,SW,226,7.0,12.0,61,0.00,,,0.00,697.000000,,2013-04-11 20:02:00,
2013-04-11 14:13:00,40.0,28.0,-100.00,SW,226,7.0,12.0,61,0.00,,,0.00,697.000000,,2013-04-11 20:13:00,
2013-04-11 14:21:00,40.0,28.0,-100.00,SW,226,7.0,12.0,61,0.00,,,0.00,697.000000,,2013-04-11 20:21:00,
2013-04-11 14:32:00,40.0,28.0,-100.00,SW,226,7.0,12.0,61,0.00,,,0.00,697.000000,,2013-04-11 20:32:00,
2013-04-11 14:52:00,46.0,31.0,-100.00,ESE,121,3.0,10.0,56,0.00,,,0.00,831.000000,,2013-04-11 20:52:00,
2013-04-11 15:02:00,46.0,31.0,-100.00,ESE,121,3.0,10.0,56,0.00,,,0.00,831.000000,,2013-04-11 21:02:00,
2013-04-11 15:12:00,46.0,31.0,-100.00,ESE,121,3.0,10.0,56,0.00,,,0.00,831.000000,,2013-04-11 21:12:00,
2013-04-11 15:22:00,46.0,31.0,-100.00,ESE,121,3.0,10.0,56,0.00,,,0.00,831.000000,,2013-04-11 21:22:00,
2013-04-11 15:32:00,46.0,31.0,-100.00,ESE,121,3.0,10.0,56,0.00,,,0.00,831.000000,,2013-04-11 21:32:00,
2013-04-11 15:54:00,45.0,30.0,-100.00,South,185,5.0,10.0,55,0.00,,,0.00,604.000000,,2013-04-11 21:54:00,
2013-04-11 16:03:00,45.0,30.0,-100.00,South,185,5.0,10.0,55,0.00,,,0.00,604.000000,,2013-04-11 22:03:00,
2013-04-11 16:13:00,45.0,30.0,-100.00,South,185,5.0,10.0,55,0.00,,,0.00,604.000000,,2013-04-11 22:13:00,
2013-04-11 16:22:00,45.0,30.0,-100.00,South,185,5.0,10.0,55,0.00,,,0.00,604.000000,,2013-04-11 22:22:00,
2013-04-11 16:32:00,45.0,30.0,-100.00,South,185,5.0,10.0,55,0.00,,,0.00,604.000000,,2013-04-11 22:32:00,
2013-04-11 16:53:00,48.0,29.0,-100.00,SSW,197,6.0,12.0,48,0.00,,,0.00,432.000000,,2013-04-11 22:53:00,
2013-04-11 17:03:00,48.0,29.0,-100.00,SSW,197,6.0,12.0,48,0.00,,,0.00,432.000000,,2013-04-11 23:03:00,
2013-04-11 17:12:00,48.0,29.0,-100.00,SSW,197,6.0,12.0,48,0.00,,,0.00,432.000000,,2013-04-11 23:12:00,
2013-04-11 17:22:00,48.0,29.0,-100.00,SSW,197,6.0,12.0,48,0.00,,,0.00,432.000000,,2013-04-11 23:22:00,
2013-04-11 17:32:00,48.0,29.0,-100.00,SSW,197,6.0,12.0,48,0.00,,,0.00,432.000000,,2013-04-11 23:32:00,
2013-04-11 17:53:00,50.0,28.0,-100.00,SW,228,6.0,14.0,43,0.00,,,0.00,610.000000,,2013-04-11 23:53:00,
2013-04-11 18:02:00,50.0,28.0,-100.00,SW,228,6.0,14.0,43,0.00,,,0.00,610.000000,,2013-04-12 00:02:00,
2013-04-11 18:12:00,50.0,28.0,-100.00,SW,228,6.0,14.0,43,0.00,,,0.00,610.000000,,2013-04-12 00:12:00,
2013-04-11 18:22:00,50.0,28.0,-100.00,SW,228,6.0,14.0,43,0.00,,,0.00,610.000000,,2013-04-12 00:22:00,
2013-04-11 18:32:00,50.0,28.0,-100.00,SW,228,6.0,14.0,43,0.00,,,0.00,610.000000,,2013-04-12 00:32:00,
2013-04-11 18:53:00,48.0,28.0,-100.00,WSW,240,8.0,15.0,45,0.00,,,0.00,364.000000,,2013-04-12 00:53:00,
2013-04-11 19:02:00,48.0,28.0,-100.00,WSW,240,8.0,15.0,45,0.00,,,0.00,364.000000,,2013-04-12 01:02:00,
2013-04-11 19:12:00,48.0,28.0,-100.00,WSW,240,8.0,15.0,45,0.00,,,0.00,364.000000,,2013-04-12 01:12:00,
2013-04-11 19:22:00,48.0,28.0,-100.00,WSW,240,8.0,15.0,45,0.00,,,0.00,364.000000,,2013-04-12 01:22:00,
2013-04-11 19:32:00,48.0,28.0,-100.00,WSW,240,8.0,15.0,45,0.00,,,0.00,364.000000,,2013-04-12 01:32:00,
2013-04-11 19:52:00,45.0,26.0,-100.00,WSW,245,6.0,13.0,47,0.00,,,0.00,64.000000,,2013-04-12 01:52:00,
2013-04-11 20:02:00,45.0,26.0,-100.00,WSW,245,6.0,13.0,47,0.00,,,0.00,64.000000,,2013-04-12 02:02:00,
2013-04-11 20:12:00,45.0,26.0,-100.00,WSW,245,6.0,13.0,47,0.00,,,0.00,64.000000,,2013-04-12 02:12:00,
2013-04-11 20:22:00,45.0,26.0,-100.00,WSW,245,6.0,13.0,47,0.00,,,0.00,64.000000,,2013-04-12 02:22:00,
2013-04-11 20:32:00,45.0,26.0,-100.00,WSW,245,6.0,13.0,47,0.00,,,0.00,64.000000,,2013-04-12 02:32:00,
2013-04-11 20:52:00,42.0,27.0,-100.00,West,265,4.0,9.0,56,0.00,,,0.00,3.000000,,2013-04-12 02:52:00,
2013-04-11 21:02:00,42.0,27.0,-100.00,West,265,4.0,9.0,56,0.00,,,0.00,3.000000,,2013-04-12 03:02:00,
2013-04-11 21:12:00,42.0,27.0,-100.00,West,265,4.0,9.0,56,0.00,,,0.00,3.000000,,2013-04-12 03:12:00,
2013-04-11 21:22:00,42.0,27.0,-100.00,West,265,4.0,9.0,56,0.00,,,0.00,3.000000,,2013-04-12 03:22:00,
2013-04-11 21:32:00,42.0,27.0,-100.00,West,265,4.0,9.0,56,0.00,,,0.00,3.000000,,2013-04-12 03:32:00,
2013-04-11 21:53:00,42.0,29.0,-100.00,WSW,252,4.0,8.0,60,0.00,,,0.00,0.000000,,2013-04-12 03:53:00,
2013-04-11 22:03:00,42.0,29.0,-100.00,WSW,252,4.0,8.0,60,0.00,,,0.00,0.000000,,2013-04-12 04:03:00,
2013-04-11 22:13:00,42.0,29.0,-100.00,WSW,252,4.0,8.0,60,0.00,,,0.00,0.000000,,2013-04-12 04:13:00,
2013-04-11 22:22:00,42.0,29.0,-100.00,WSW,252,4.0,8.0,60,0.00,,,0.00,0.000000,,2013-04-12 04:22:00,
2013-04-11 22:33:00,42.0,29.0,-100.00,WSW,252,4.0,8.0,60,0.00,,,0.00,0.000000,,2013-04-12 04:33:00,
2013-04-11 22:53:00,41.0,30.0,-100.00,WSW,240,4.0,8.0,64,0.00,,,0.00,0.000000,,2013-04-12 04:53:00,
2013-04-11 23:03:00,41.0,30.0,-100.00,WSW,240,4.0,8.0,64,0.00,,,0.00,0.000000,,2013-04-12 05:03:00,
2013-04-11 23:12:00,41.0,30.0,-100.00,WSW,240,4.0,8.0,64,0.00,,,0.00,0.000000,,2013-04-12 05:12:00,
2013-04-11 23:22:00,41.0,30.0,-100.00,WSW,240,4.0,8.0,64,0.00,,,0.00,0.000000,,2013-04-12 05:22:00,
2013-04-11 23:32:00,41.0,30.0,-100.00,WSW,240,4.0,8.0,64,0.00,,,0.00,0.000000,,2013-04-12 05:32:00,
2013-04-11 23:52:00,41.0,29.0,-100.00,ENE,64,1.0,4.0,63,0.00,,,0.00,0.000000,,2013-04-12 05:52:00,